COSMOS 1275 DEB, 42099

Orbit data source: Space-Track

COSMOS 1275 DEB, 42099 is space debris in LEO originally from a launch on Thu, 04 Jun 1981 UTC launched from the Plesetsk Missile And Space Complex (PKMTR). Debris objects in space refer to the collection of defunct objects orbiting the Earth. Examples of debris include non-operational satellites, rocket bodies, and fragments generated from explosions, collisions, or faulty payload assembly.

Loading next visibility...
Identifier
42099, 1981-053PK
Orbit
LEO
Country
Flag of CISCIS
Related business
Manufacturer
Unknown
Mission
Spacecraft
Bus & Motor
Unknown
Mass
Unknown
Launch date (UTC)
1981-06-04 (45 years ago)
Launch vehicle
Unknown
Launch site
Plesetsk Missile And Space Complex (PKMTR)
Object type
Payload
Rocket body
Debris
Shape & HBR
Unknown shape, 0.1 m
Radar Cross Section
Small (<0.1 m²)

Expand to show TLE details & history
Last TLE update: 2 weeks ago

TLE from 2 weeks ago
0 COSMOS 1275 DEB
1 42099U 81053PK  26161.91932236  .00004161  00000-0  14821-2 0  9992
2 42099  82.8525  36.1447 0028820  38.7074 321.6172 14.33862898535580
Epoch: 2026-06-10T22:03Z
TLE epoch observation values (Epoch: 2026-06-10T22:03:49.451Z)
Latitude
-0.00007°
Longitude
165.91808°
Altitude
765.678 km
Speed
7.48 km/s
True Right ascension
02h 24m 34s
True Declination
0° 00' 00"
Sunlit
Object was in daylight at epoch
Visualization orbit readout
Latitude
Unknown
Longitude
Unknown
Altitude
Unknown
Speed
Unknown
Apparent Right ascension
Unknown
Apparent Declination
Unknown
Sunlit
N/A
Visualization observer readout
Local Sidereal Time
17:36:44
Azimuth
Unknown
Elevation
Unknown
Doppler factor
Unknown
Orbital elements
Apogee altitude
796.537 km
Perigee altitude
755.301 km
Semi-major axis
7,154.056 km
Eccentricity
0.00288
Inclination
82.8525°
RAAN
36.1447°
Arg. of periapsis
38.7074°
True anomaly
321.41156°
Mean anomaly
321.6172°
Eccentric anomaly
321.51444°
Mean motion
3.58686 °/min
Orbital period
100.37 mins
BSTAR
0.0014821
Loading maneuver chart data...
Computing Atmospheric mass density...
Loading historical data...
Loading historical data...
Loading historical data...
Loading historical data...
Loading historical data...
Loading historical data...
Loading historical data...

Documentation

Showing up to 5 results
|